Vertical_Velocity
0 -1 1 -1 -1 1 -1 -1 4 -1 3 2 3 -1 1 3 -2 -4 -0 2 -1 0 1 3 3 -3 1 -1 1 1 1 1 3 2 1 -1 2 0 -0 0 -0 -2 0 3 0 -1 -1 -1 0
1 -1 0 1 -1 -5 -2 -2 0 -1 -2 1 1 2 1 0 -1 -1 -1 -0 -3 -0 0 -1 -1 -5 0 -0 -0 1 0 1 3 1 1 1 -0 -0 0 -1 -1 1 -1 -0 1 -0 -3 -0 -0
1 -2 0 -2 2 -4 -1 1 -0 -2 1 2 1 2 1 -1 1 -3 -1 2 1 -1 -0 -1 -1 -4 1 -0 -1 -1 1 0 1 -1 1 2 -1 0 4 -1 -1 1 -2 -2 -0 0 -1 -1 -1
1 -1 2 -0 3 -0 -2 -0 1 -3 -2 1 1 -1 1 -0 -0 2 2 1 2 -0 -0 1 2 0 1 -1 -0 -1 -2 1 3 2 2 1 1 2 0 -1 -1 0 -2 -2 -3 -1 1 1 -1
-3 -0 -3 -3 1 -0 -5 -3 -0 -4 2 3 0 1 1 0 0 1 1 1 3 0 -4 -4 -1 2 -0 1 4 0 -0 0 7 -0 2 1 -1 3 1 -0 -1 -0 -1 -3 -2 -0 4 1 0
-3 -2 0 -3 4 -1 3 -5 -3 -4 4 2 -0 0 2 -1 -1 2 -0 1 1 -1 8 9 0 0 0 -2 3 0 1 -1 3 3 1 0 -0 -0 1 -0 -0 -2 -2 -2 2 1 -2 -2 -2
-1 -1 1 -2 -2 -3 -3 -3 -1 1 2 1 0 -3 -0 -1 -1 -1 2 2 1 3 0 -0 0 0 0 -2 -0 1 -2 -0 1 0 -1 1 0 0 -1 0 0 0 -2 0 0 0 -2 -3 -0
-3 -4 1 -3 -6 -4 -1 -2 1 1 1 2 -0 0 -2 1 0 -3 -1 -1 -1 -1 -2 -3 1 6 2 5 -1 -1 3 -0 -1 -0 -0 -1 3 1 -1 -1 1 1 -2 -0 0 -0 -1 -1 2
1 -3 1 1 -4 -2 0 -1 -2 -1 1 1 2 -2 -0 -0 -0 0 -2 2 1 -2 -2 -1 -0 1 1 3 2 5 2 0 -1 -1 1 -1 -1 -2 -0 -2 0 0 -2 0 3 -1 2 -2 -2
0 1 -2 6 4 5 2 -1 4 -1 -1 3 0 -1 -1 2 0 1 -1 -1 0 1 2 -1 -1 0 -1 3 2 11 7 8 4 3 12 -1 1 -2 -1 -2 0 1 -2 -0 4 1 -2 -0 -1
-1 -1 2 2 6 -4 1 -6 -5 -1 -1 -0 -3 0 -3 0 2 -1 -1 -3 -2 -2 0 1 0 -1 2 -0 -1 -1 0 1 3 1 0 1 2 -1 1 -0 1 0 -2 -1 -0 2 1 2 -4
-2 -2 -1 0 7 2 -2 0 -1 4 2 0 -3 -2 -1 -0 -1 1 -0 -1 -1 0 -0 1 0 -0 -1 -1 -3 1 0 2 1 0 -1 -0 2 2 -1 -0 1 -1 0 -1 -0 0 0 -1 -0
-1 -4 -2 4 -1 -2 2 -2 -4 -1 2 2 0 -2 -2 2 -5 0 -2 -2 -1 -1 1 0 1 1 2 -2 -1 -7 -1 0 1 -0 0 -1 1 2 -0 -1 -0 1 -1 1 -0 -1 -2 -2 -0
1 -4 -7 5 -3 -3 3 -1 4 -0 -2 2 1 1 -3 -2 0 1 -3 -1 0 -1 -1 -1 -0 -1 1 1 -2 2 -1 0 3 -0 -1 1 2 0 0 -1 -1 0 -1 1 0 -0 -2 -1 -1
-2 -3 -1 1 3 -1 2 -0 5 -4 -3 -3 -2 -1 -2 1 -2 -1 -1 -1 0 -1 -1 -0 -0 0 -1 1 -1 0 0 2 2 -0 2 2 1 0 1 1 1 -0 2 2 -0 -0 1 -0 1
-2 0 -0 -2 1 1 3 -0 1 -1 2 1 -4 -1 -2 3 -0 -1 -0 -1 -1 -1 -1 0 1 0 0 1 1 -0 0 2 1 -2 -0 1 -0 2 0 1 2 -0 1 1 0 2 -2 -0 -1
-3 -0 1 -2 -3 1 -2 1 3 -4 3 4 -2 -1 -1 -3 1 -2 -0 -1 0 -1 -1 -0 -0 1 -0 2 0 0 -1 -1 -1 -2 1 1 0 1 -0 2 2 -1 1 -0 -0 -1 -1 1 0
-1 0 2 3 -0 -0 -2 0 -4 2 1 -1 2 -4 -1 -3 1 2 0 0 -0 -1 -2 -3 2 -1 -2 -0 -1 -1 -0 -3 -3 0 1 2 2 1 -1 1 0 1 2 1 -1 1 1 -0 -2
0 -1 -4 4 12 5 0 -5 -4 5 -5 -4 -2 0 -1 -1 4 -1 2 -1 -2 -1 0 1 -2 1 -1 -2 -2 -5 -0 1 1 4 0 2 0 2 1 -0 2 1 0 1 -0 1 -1 -1 -1
-0 -4 -8 3 1 -1 4 6 -10 -10 -3 1 1 -3 -0 1 -4 -1 -1 0 -0 2 -1 -0 -2 -1 1 1 1 -1 4 -1 1 -2 2 1 -0 -1 -0 1 -1 0 -1 6 1 0 -1 -2 -1
2 -8 -2 0 -0 -4 -4 -13 4 -2 2 -1 -0 6 -5 -1 2 -2 -3 2 1 -1 -0 -1 1 -1 -0 1 -1 -2 -2 1 -0 -3 2 3 2 0 1 1 1 -1 -1 1 2 2 1 1 -2
-2 2 7 6 3 -2 3 -10 -4 3 -5 -7 6 -4 -0 -4 -5 -2 1 -1 1 1 -0 -2 -2 1 0 -2 -2 -1 3 3 5 3 -0 -1 1 -1 0 0 0 0 -1 -1 -2 0 2 2 -0
-16 6 -0 4 5 3 -1 2 -19 1 3 -5 -0 1 1 -1 0 -6 -9 -1 6 -2 0 1 -2 -2 1 -1 -2 -2 -3 2 1 -0 2 2 1 2 -0 0 1 2 2 -0 -2 -2 1 3 0
5 -3 2 2 4 -0 -3 6 -18 -8 -7 0 7 1 -2 -0 -1 3 1 10 6 4 -2 -1 -4 -1 -0 0 1 0 2 1 0 2 2 2 0 1 1 1 2 1 3 3 2 2 1 1 1
5 4 -4 -3 -1 -9 2 9 -28 -6 -4 2 -8 1 6 2 -1 -2 2 -6 -3 1 -1 0 2 -2 1 1 -0 2 3 1 1 -0 3 2 2 3 0 1 2 1 1 3 -1 -1 2 -0 2
5 3 -4 -4 -3 -6 1 -5 -23 -3 -0 9 -9 1 -3 -6 0 -0 -1 3 -1 3 1 -1 -2 -5 1 2 1 -1 -3 -1 1 -1 0 1 1 3 2 -1 -1 -1 -2 0 -1 -0 1 -1 -1
-8 -4 3 1 2 -0 -3 -8 -10 -10 -4 0 2 -7 3 1 -7 -5 -4 -3 1 -2 0 -1 -1 -6 -6 4 0 1 0 -1 3 2 -0 -1 2 5 3 0 -2 -2 0 -2 4 1 1 -2 0
0 3 -1 1 -3 -1 -2 -3 -18 -7 1 3 -0 1 3 3 -2 -7 -4 -4 -6 -2 4 6 6 6 6 2 1 0 -0 1 2 1 3 3 1 -1 4 2 -0 -4 -1 -0 -5 -5 2 2 1
5 -3 1 5 1 -6 -2 -10 -4 -2 1 -6 7 3 -2 2 6 -3 1 4 6 8 -8 -1 1 3 0 3 5 1 -2 -2 1 0 -1 -0 -1 1 -1 0 0 -1 -6 -6 -3 0 -3 -2 -1
3 3 7 6 -5 1 0 -40 4 -5 2 -3 2 7 -3 -1 2 2 0 -1 1 3 -1 -1 -4 -0 3 14 2 1 -2 -2 -2 -0 -0 -2 -1 -1 -2 -4 -3 -3 -5 -2 -4 -5 -4 -4 -4
Height
3163 3162 3161 3161 3166 3165 3164 3167 3168 3167 3167 3166 3166 3167 3168 3167 3168 3171 3167 3168 3172 3175 3177 3179 3182 3184 3187 3190 3191 3193 3195 3196 3197 3198 3198 3199 3199 3200 3201 3201 3201 3202 3201 3201 3202 3203 3204 3204 3204
3163 3160 3158 3159 3164 3163 3166 3167 3168 3168 3168 3167 3167 3167 3167 3167 3167 3168 3168 3168 3171 3175 3178 3181 3183 3184 3188 3190 3192 3194 3196 3197 3198 3198 3198 3200 3200 3201 3201 3201 3202 3203 3203 3203 3204 3205 3206 3206 3207
3162 3160 3160 3160 3162 3164 3167 3167 3167 3168 3168 3168 3167 3167 3165 3165 3165 3166 3168 3169 3172 3175 3179 3182 3184 3186 3189 3192 3193 3195 3196 3197 3198 3198 3200 3200 3201 3201 3202 3203 3204 3205 3205 3205 3205 3206 3207 3208 3208
3163 3162 3163 3162 3162 3165 3166 3167 3167 3169 3169 3168 3166 3165 3165 3164 3163 3165 3168 3170 3173 3176 3179 3182 3184 3187 3190 3192 3194 3195 3197 3198 3199 3200 3201 3202 3202 3203 3203 3204 3206 3206 3206 3206 3206 3207 3208 3209 3210
3164 3162 3162 3162 3163 3165 3166 3167 3168 3168 3168 3167 3165 3164 3163 3163 3163 3165 3167 3170 3173 3176 3179 3182 3186 3188 3190 3192 3194 3196 3197 3199 3200 3201 3203 3204 3204 3205 3205 3206 3207 3207 3207 3208 3209 3210 3211 3212 3213
3164 3162 3160 3161 3163 3166 3167 3167 3168 3168 3168 3168 3166 3163 3164 3162 3162 3165 3167 3169 3173 3176 3179 3182 3185 3187 3190 3192 3194 3196 3198 3199 3201 3202 3204 3205 3206 3206 3206 3208 3208 3208 3209 3210 3211 3212 3213 3215 3216
3164 3162 3161 3163 3165 3166 3167 3168 3168 3169 3169 3169 3166 3164 3164 3162 3161 3164 3165 3168 3172 3176 3178 3182 3184 3187 3190 3192 3195 3197 3199 3200 3201 3203 3205 3206 3207 3207 3208 3210 3211 3210 3212 3213 3213 3215 3217 3217 3218
3166 3164 3164 3165 3166 3167 3167 3168 3168 3169 3169 3169 3167 3166 3164 3163 3162 3164 3167 3169 3172 3175 3177 3180 3183 3185 3189 3190 3195 3197 3198 3199 3201 3203 3205 3206 3208 3208 3209 3211 3213 3213 3214 3215 3215 3216 3219 3220 3220
3166 3167 3166 3166 3166 3167 3167 3167 3168 3169 3169 3169 3168 3166 3164 3162 3162 3164 3167 3170 3172 3175 3178 3180 3183 3185 3188 3192 3194 3194 3196 3199 3201 3204 3205 3206 3208 3209 3211 3213 3214 3215 3216 3218 3217 3218 3219 3221 3222
3168 3167 3167 3167 3168 3169 3168 3167 3168 3169 3170 3170 3168 3167 3166 3163 3163 3164 3167 3169 3172 3175 3178 3180 3182 3184 3187 3190 3192 3194 3191 3197 3202 3204 3204 3208 3210 3211 3213 3214 3215 3218 3218 3219 3220 3220 3221 3222 3223
3167 3167 3167 3167 3168 3168 3168 3169 3169 3170 3170 3170 3169 3168 3167 3164 3164 3166 3167 3169 3171 3174 3177 3179 3181 3184 3186 3189 3191 3192 3192 3197 3202 3205 3207 3209 3211 3212 3214 3215 3217 3218 3220 3222 3222 3222 3223 3223 3224
3167 3166 3166 3166 3167 3168 3168 3167 3168 3169 3171 3170 3168 3168 3167 3166 3166 3167 3169 3170 3172 3173 3176 3178 3180 3183 3185 3187 3189 3190 3193 3200 3202 3205 3207 3210 3212 3214 3215 3217 3219 3220 3222 3223 3225 3225 3225 3225 3226
3167 3167 3165 3166 3167 3167 3168 3167 3167 3168 3169 3169 3169 3168 3168 3168 3168 3168 3170 3170 3172 3173 3175 3177 3179 3183 3185 3186 3188 3190 3195 3200 3203 3206 3208 3210 3213 3215 3217 3219 3220 3222 3224 3226 3227 3227 3227 3227 3228
3167 3167 3165 3166 3167 3166 3167 3166 3166 3167 3169 3169 3170 3168 3168 3170 3170 3170 3171 3172 3173 3174 3175 3177 3179 3182 3184 3187 3190 3193 3196 3199 3202 3205 3208 3210 3213 3216 3218 3220 3222 3223 3225 3226 3228 3229 3229 3229 3229
3167 3167 3166 3167 3168 3168 3168 3167 3166 3167 3167 3169 3170 3169 3169 3170 3171 3171 3172 3173 3174 3174 3176 3177 3177 3180 3183 3187 3190 3193 3197 3200 3203 3206 3209 3212 3214 3217 3219 3222 3223 3225 3226 3226 3228 3229 3230 3231 3231
3167 3167 3166 3167 3168 3167 3169 3166 3167 3166 3166 3168 3169 3170 3170 3171 3171 3172 3172 3174 3175 3175 3177 3178 3177 3179 3182 3186 3190 3194 3197 3200 3204 3207 3210 3213 3215 3218 3220 3222 3224 3226 3226 3227 3228 3229 3231 3231 3232
3167 3166 3166 3167 3166 3166 3167 3165 3166 3165 3165 3166 3168 3170 3170 3171 3172 3172 3172 3174 3175 3176 3177 3177 3177 3177 3181 3185 3190 3194 3197 3201 3204 3207 3210 3213 3216 3218 3220 3222 3225 3226 3227 3228 3229 3230 3231 3231 3231
3167 3167 3166 3166 3167 3165 3165 3163 3163 3164 3165 3165 3166 3168 3170 3171 3172 3172 3173 3174 3175 3176 3177 3177 3178 3178 3181 3185 3189 3193 3198 3201 3205 3208 3210 3213 3215 3217 3220 3223 3224 3226 3227 3228 3229 3230 3230 3231 3230
3166 3166 3165 3165 3166 3164 3162 3161 3161 3162 3162 3163 3164 3164 3167 3170 3172 3172 3172 3174 3175 3176 3178 3178 3179 3181 3183 3186 3189 3194 3198 3202 3205 3208 3211 3213 3215 3217 3218 3222 3224 3225 3226 3227 3228 3229 3229 3230 3230
3164 3165 3164 3164 3164 3163 3160 3159 3159 3158 3157 3159 3162 3163 3164 3168 3169 3170 3171 3172 3174 3176 3177 3179 3180 3182 3185 3188 3191 3194 3198 3202 3205 3207 3210 3213 3215 3217 3218 3221 3223 3224 3225 3227 3227 3228 3229 3229 3230
3162 3163 3162 3163 3162 3161 3159 3157 3157 3157 3156 3156 3155 3159 3161 3163 3166 3168 3170 3171 3173 3174 3176 3179 3180 3183 3186 3188 3190 3194 3197 3200 3203 3207 3210 3213 3214 3216 3218 3220 3221 3222 3223 3226 3227 3227 3228 3229 3229
3159 3162 3162 3162 3161 3159 3159 3158 3155 3155 3155 3154 3153 3153 3155 3159 3161 3164 3167 3170 3172 3174 3175 3177 3179 3181 3185 3188 3190 3193 3197 3201 3204 3206 3208 3210 3213 3214 3216 3218 3220 3221 3222 3224 3225 3225 3226 3227 3228
3158 3160 3160 3158 3157 3158 3158 3158 3153 3153 3152 3152 3151 3150 3151 3155 3157 3160 3163 3168 3171 3173 3174 3176 3178 3180 3182 3186 3189 3192 3196 3199 3202 3204 3206 3208 3210 3212 3214 3216 3218 3220 3220 3221 3222 3223 3223 3224 3226
3156 3156 3156 3155 3154 3156 3154 3155 3148 3149 3149 3149 3149 3147 3147 3149 3153 3156 3160 3165 3169 3172 3173 3174 3177 3179 3180 3184 3187 3190 3193 3197 3199 3202 3204 3206 3208 3210 3212 3214 3216 3217 3218 3219 3220 3220 3221 3221 3222
3152 3154 3154 3155 3154 3153 3151 3151 3146 3146 3146 3146 3144 3143 3143 3145 3149 3152 3155 3159 3164 3168 3172 3173 3175 3177 3180 3182 3186 3189 3191 3194 3196 3199 3201 3203 3206 3208 3211 3212 3214 3214 3215 3215 3216 3217 3218 3218 3218
3148 3150 3150 3153 3154 3148 3147 3144 3142 3142 3142 3143 3141 3139 3139 3141 3145 3149 3152 3156 3160 3165 3170 3172 3175 3177 3178 3180 3184 3187 3189 3191 3193 3195 3198 3200 3203 3206 3207 3208 3209 3210 3211 3212 3212 3213 3214 3215 3215
3145 3145 3146 3145 3145 3145 3143 3140 3138 3139 3138 3139 3138 3136 3136 3137 3140 3146 3149 3153 3158 3162 3166 3170 3173 3176 3177 3179 3181 3184 3187 3189 3192 3193 3195 3197 3199 3202 3203 3204 3205 3207 3208 3208 3209 3209 3210 3210 3212
3140 3142 3142 3141 3144 3145 3139 3137 3135 3134 3134 3135 3134 3133 3134 3136 3138 3142 3146 3150 3154 3158 3162 3167 3170 3173 3176 3178 3180 3182 3185 3188 3190 3191 3193 3194 3196 3198 3200 3201 3201 3202 3204 3204 3204 3205 3206 3207 3208
3136 3136 3136 3136 3136 3135 3139 3132 3130 3130 3131 3131 3130 3130 3130 3132 3134 3138 3142 3147 3152 3156 3158 3162 3166 3169 3172 3175 3178 3180 3182 3184 3186 3188 3190 3192 3193 3194 3195 3196 3196 3197 3198 3199 3199 3200 3202 3202 3203
3130 3131 3132 3132 3132 3130 3130 3125 3128 3128 3128 3128 3127 3126 3128 3129 3133 3136 3140 3144 3148 3152 3154 3157 3161 3165 3168 3170 3173 3177 3179 3180 3182 3184 3185 3187 3189 3189 3190 3190 3190 3191 3191 3192 3193 3194 3195 3196 3197